Voltar ao catálogo

THOR ABLESTAR DEB

AtivoLEO
NORAD 141·DEBRIS·🇺🇸 United States

Lançado Jun 29, 1961 de Cape Canaveral Space Force Station

Loading…

Próximas Passagens (próximas 24 horas)

TLE

AtualizadoSource: Space-Track

Época: Sep 14, 2026, 04:40 UTC

1 00141U 61015AB  26257.19460811  .00000142  00000-0  17881-3 0  9996
2 00141  66.5885 185.5916 0055336 341.1399  18.7626 13.89063206284184

Acompanhe THOR ABLESTAR DEB em tempo real com AllMySat

Download on the App Store